Time,TemperatureF,DewpointF,PressureIn,WindDirection,WindDirectionDegrees,WindSpeedMPH,WindSpeedGustMPH,Humidity,HourlyPrecipIn,Conditions,Clouds,dailyrainin,SolarRadiationWatts/m^2,SoftwareType,DateUTC
2013-09-14 00:02:00,62.0,47.0,-100.00,South,183,3.0,6.0,59,0.00,,,0.00,0.000000,,2013-09-14 06:02:00,
2013-09-14 00:12:00,62.0,47.0,-100.00,South,183,3.0,6.0,59,0.00,,,0.00,0.000000,,2013-09-14 06:12:00,
2013-09-14 00:21:00,62.0,47.0,-100.00,South,183,3.0,6.0,59,0.00,,,0.00,0.000000,,2013-09-14 06:21:00,
2013-09-14 00:32:00,62.0,47.0,-100.00,South,183,3.0,6.0,59,0.00,,,0.00,0.000000,,2013-09-14 06:32:00,
2013-09-14 00:34:00,56.0,49.0,-100.00,WNW,285,10.0,21.0,77,0.06,,,0.06,0.000000,,2013-09-14 06:34:00,
2013-09-14 00:52:00,56.0,49.0,-100.00,WNW,285,10.0,21.0,77,0.06,,,0.06,0.000000,,2013-09-14 06:52:00,
2013-09-14 01:02:00,56.0,49.0,-100.00,WNW,285,10.0,21.0,77,0.06,,,0.06,0.000000,,2013-09-14 07:02:00,
2013-09-14 01:12:00,56.0,49.0,-100.00,WNW,285,10.0,21.0,77,0.06,,,0.06,0.000000,,2013-09-14 07:12:00,
2013-09-14 01:21:00,56.0,49.0,-100.00,WNW,285,10.0,21.0,77,0.06,,,0.06,0.000000,,2013-09-14 07:21:00,
2013-09-14 01:52:00,56.0,48.0,-100.00,SW,228,0.0,13.0,75,0.04,,,0.10,0.000000,,2013-09-14 07:52:00,
2013-09-14 02:02:00,56.0,48.0,-100.00,SW,228,0.0,13.0,75,0.04,,,0.10,0.000000,,2013-09-14 08:02:00,
2013-09-14 02:12:00,56.0,48.0,-100.00,SW,228,0.0,13.0,75,0.04,,,0.10,0.000000,,2013-09-14 08:12:00,
2013-09-14 02:21:00,56.0,48.0,-100.00,SW,228,0.0,13.0,75,0.04,,,0.10,0.000000,,2013-09-14 08:21:00,
2013-09-14 02:31:00,56.0,48.0,-100.00,SW,228,0.0,13.0,75,0.04,,,0.10,0.000000,,2013-09-14 08:31:00,
2013-09-14 02:52:00,53.0,50.0,-100.00,ENE,63,10.0,11.0,90,0.05,,,0.15,0.000000,,2013-09-14 08:52:00,
2013-09-14 03:02:00,53.0,50.0,-100.00,ENE,63,10.0,11.0,90,0.05,,,0.15,0.000000,,2013-09-14 09:02:00,
2013-09-14 03:12:00,53.0,50.0,-100.00,ENE,63,10.0,11.0,90,0.05,,,0.15,0.000000,,2013-09-14 09:12:00,
2013-09-14 03:21:00,53.0,50.0,-100.00,ENE,63,10.0,11.0,90,0.05,,,0.15,0.000000,,2013-09-14 09:21:00,
2013-09-14 03:33:00,53.0,50.0,-100.00,ENE,63,10.0,11.0,90,0.05,,,0.15,0.000000,,2013-09-14 09:33:00,
2013-09-14 03:53:00,53.0,50.0,-100.00,East,101,5.0,12.0,88,0.02,,,0.17,0.000000,,2013-09-14 09:53:00,
2013-09-14 04:03:00,53.0,50.0,-100.00,East,101,5.0,12.0,88,0.02,,,0.17,0.000000,,2013-09-14 10:03:00,
2013-09-14 04:12:00,53.0,50.0,-100.00,East,101,5.0,12.0,88,0.02,,,0.17,0.000000,,2013-09-14 10:12:00,
2013-09-14 04:23:00,53.0,50.0,-100.00,East,101,5.0,12.0,88,0.02,,,0.17,0.000000,,2013-09-14 10:23:00,
2013-09-14 04:32:00,53.0,50.0,-100.00,East,101,5.0,12.0,88,0.02,,,0.17,0.000000,,2013-09-14 10:32:00,
2013-09-14 04:53:00,53.0,51.0,-100.00,South,171,1.0,9.0,93,0.11,,,0.28,0.000000,,2013-09-14 10:53:00,
2013-09-14 05:02:00,53.0,51.0,-100.00,South,171,1.0,9.0,93,0.11,,,0.28,0.000000,,2013-09-14 11:02:00,
2013-09-14 05:12:00,53.0,51.0,-100.00,South,171,1.0,9.0,93,0.11,,,0.28,0.000000,,2013-09-14 11:12:00,
2013-09-14 05:22:00,53.0,51.0,-100.00,South,171,1.0,9.0,93,0.11,,,0.28,0.000000,,2013-09-14 11:22:00,
2013-09-14 05:33:00,53.0,51.0,-100.00,South,171,1.0,9.0,93,0.11,,,0.28,0.000000,,2013-09-14 11:33:00,
2013-09-14 05:52:00,53.0,51.0,-100.00,ESE,111,5.0,7.0,93,0.05,,,0.33,0.000000,,2013-09-14 11:52:00,
2013-09-14 06:02:00,53.0,51.0,-100.00,ESE,111,5.0,7.0,93,0.05,,,0.33,0.000000,,2013-09-14 12:02:00,
2013-09-14 06:12:00,53.0,51.0,-100.00,ESE,111,5.0,7.0,93,0.05,,,0.33,0.000000,,2013-09-14 12:12:00,
2013-09-14 06:22:00,53.0,51.0,-100.00,ESE,111,5.0,7.0,93,0.05,,,0.33,0.000000,,2013-09-14 12:22:00,
2013-09-14 06:31:00,53.0,51.0,-100.00,ESE,111,5.0,7.0,93,0.05,,,0.33,0.000000,,2013-09-14 12:31:00,
2013-09-14 06:52:00,52.0,50.0,-100.00,East,80,7.0,9.0,94,0.02,,,0.35,0.000000,,2013-09-14 12:52:00,
2013-09-14 07:01:00,52.0,50.0,-100.00,East,80,7.0,9.0,94,0.02,,,0.35,0.000000,,2013-09-14 13:01:00,
2013-09-14 07:12:00,52.0,50.0,-100.00,East,80,7.0,9.0,94,0.02,,,0.35,0.000000,,2013-09-14 13:12:00,
2013-09-14 07:21:00,52.0,50.0,-100.00,East,80,7.0,9.0,94,0.02,,,0.35,0.000000,,2013-09-14 13:21:00,
2013-09-14 07:32:00,52.0,50.0,-100.00,East,80,7.0,9.0,94,0.02,,,0.35,0.000000,,2013-09-14 13:32:00,
2013-09-14 07:52:00,52.0,51.0,-100.00,ENE,73,6.0,10.0,95,0.01,,,0.36,3.000000,,2013-09-14 13:52:00,
2013-09-14 08:02:00,52.0,51.0,-100.00,ENE,73,6.0,10.0,95,0.01,,,0.36,3.000000,,2013-09-14 14:02:00,
2013-09-14 08:11:00,52.0,51.0,-100.00,ENE,73,6.0,10.0,95,0.01,,,0.36,3.000000,,2013-09-14 14:11:00,
2013-09-14 08:22:00,52.0,51.0,-100.00,ENE,73,6.0,10.0,95,0.01,,,0.36,3.000000,,2013-09-14 14:22:00,
2013-09-14 08:32:00,52.0,51.0,-100.00,ENE,73,6.0,10.0,95,0.01,,,0.36,3.000000,,2013-09-14 14:32:00,
2013-09-14 08:52:00,52.0,51.0,-100.00,East,88,4.0,10.0,95,0.04,,,-99.99,27.000000,,2013-09-14 14:52:00,
2013-09-14 09:02:00,52.0,51.0,-100.00,East,88,4.0,10.0,95,0.04,,,-99.99,27.000000,,2013-09-14 15:02:00,
2013-09-14 09:11:00,52.0,51.0,-100.00,East,88,4.0,10.0,95,0.04,,,-99.99,27.000000,,2013-09-14 15:11:00,
2013-09-14 09:22:00,52.0,51.0,-100.00,East,88,4.0,10.0,95,0.04,,,-99.99,27.000000,,2013-09-14 15:22:00,
2013-09-14 09:33:00,52.0,51.0,-100.00,East,88,4.0,10.0,95,0.04,,,-99.99,27.000000,,2013-09-14 15:33:00,
2013-09-14 09:53:00,53.0,51.0,-100.00,NE,42,6.0,8.0,92,0.06,,,0.46,75.000000,,2013-09-14 15:53:00,
2013-09-14 10:03:00,53.0,51.0,-100.00,NE,42,6.0,8.0,92,0.06,,,0.46,75.000000,,2013-09-14 16:03:00,
2013-09-14 10:13:00,53.0,51.0,-100.00,NE,42,6.0,8.0,92,0.06,,,0.46,75.000000,,2013-09-14 16:13:00,
2013-09-14 10:23:00,53.0,51.0,-100.00,NE,42,6.0,8.0,92,0.06,,,0.46,75.000000,,2013-09-14 16:23:00,
2013-09-14 10:33:00,53.0,51.0,-100.00,NE,42,6.0,8.0,92,0.06,,,0.46,75.000000,,2013-09-14 16:33:00,
2013-09-14 10:54:00,58.0,52.0,-100.00,ESE,108,3.0,5.0,80,0.00,,,0.46,415.000000,,2013-09-14 16:54:00,
2013-09-14 11:03:00,58.0,52.0,-100.00,ESE,108,3.0,5.0,80,0.00,,,0.46,415.000000,,2013-09-14 17:03:00,
2013-09-14 11:11:00,58.0,52.0,-100.00,ESE,108,3.0,5.0,80,0.00,,,0.46,415.000000,,2013-09-14 17:11:00,
2013-09-14 11:23:00,58.0,52.0,-100.00,ESE,108,3.0,5.0,80,0.00,,,0.46,415.000000,,2013-09-14 17:23:00,
2013-09-14 11:33:00,58.0,52.0,-100.00,ESE,108,3.0,5.0,80,0.00,,,0.46,415.000000,,2013-09-14 17:33:00,
2013-09-14 11:54:00,58.0,53.0,-100.00,WSW,247,2.0,7.0,82,0.00,,,0.46,340.000000,,2013-09-14 17:54:00,
2013-09-14 12:02:00,58.0,53.0,-100.00,WSW,247,2.0,7.0,82,0.00,,,0.46,340.000000,,2013-09-14 18:02:00,
2013-09-14 12:12:00,58.0,53.0,-100.00,WSW,247,2.0,7.0,82,0.00,,,0.46,340.000000,,2013-09-14 18:12:00,
2013-09-14 12:21:00,58.0,53.0,-100.00,WSW,247,2.0,7.0,82,0.00,,,0.46,340.000000,,2013-09-14 18:21:00,
2013-09-14 12:32:00,58.0,53.0,-100.00,WSW,247,2.0,7.0,82,0.00,,,0.46,340.000000,,2013-09-14 18:32:00,
2013-09-14 12:52:00,61.0,52.0,-100.00,SSW,208,5.0,10.0,72,0.00,,,0.46,537.000000,,2013-09-14 18:52:00,
2013-09-14 13:02:00,61.0,52.0,-100.00,SSW,208,5.0,10.0,72,0.00,,,0.46,537.000000,,2013-09-14 19:02:00,
2013-09-14 13:11:00,61.0,52.0,-100.00,SSW,208,5.0,10.0,72,0.00,,,0.46,537.000000,,2013-09-14 19:11:00,
2013-09-14 13:22:00,61.0,52.0,-100.00,SSW,208,5.0,10.0,72,0.00,,,0.46,537.000000,,2013-09-14 19:22:00,
2013-09-14 13:32:00,61.0,52.0,-100.00,SSW,208,5.0,10.0,72,0.00,,,0.46,537.000000,,2013-09-14 19:32:00,
2013-09-14 13:52:00,60.0,52.0,-100.00,South,176,4.0,11.0,76,0.00,,,0.46,417.000000,,2013-09-14 19:52:00,
2013-09-14 14:02:00,60.0,52.0,-100.00,South,176,4.0,11.0,76,0.00,,,0.46,417.000000,,2013-09-14 20:02:00,
2013-09-14 14:12:00,60.0,52.0,-100.00,South,176,4.0,11.0,76,0.00,,,0.46,417.000000,,2013-09-14 20:12:00,
2013-09-14 14:22:00,60.0,52.0,-100.00,South,176,4.0,11.0,76,0.00,,,0.46,417.000000,,2013-09-14 20:22:00,
2013-09-14 14:32:00,60.0,52.0,-100.00,South,176,4.0,11.0,76,0.00,,,0.46,417.000000,,2013-09-14 20:32:00,
2013-09-14 14:52:00,64.0,52.0,-100.00,South,190,6.0,15.0,65,0.00,,,0.46,830.000000,,2013-09-14 20:52:00,
2013-09-14 15:02:00,64.0,52.0,-100.00,South,190,6.0,15.0,65,0.00,,,0.46,830.000000,,2013-09-14 21:02:00,
2013-09-14 15:11:00,64.0,52.0,-100.00,South,190,6.0,15.0,65,0.00,,,0.46,830.000000,,2013-09-14 21:11:00,
2013-09-14 15:22:00,64.0,52.0,-100.00,South,190,6.0,15.0,65,0.00,,,0.46,830.000000,,2013-09-14 21:22:00,
2013-09-14 15:32:00,64.0,52.0,-100.00,South,190,6.0,15.0,65,0.00,,,0.46,830.000000,,2013-09-14 21:32:00,
2013-09-14 15:34:00,61.0,52.0,-100.00,SW,223,5.0,14.0,72,0.00,,,0.46,618.000000,,2013-09-14 21:34:00,
2013-09-14 15:54:00,61.0,52.0,-100.00,SW,223,5.0,14.0,72,0.00,,,0.46,618.000000,,2013-09-14 21:54:00,
2013-09-14 16:04:00,61.0,52.0,-100.00,SW,223,5.0,14.0,72,0.00,,,0.46,618.000000,,2013-09-14 22:04:00,
2013-09-14 16:13:00,61.0,52.0,-100.00,SW,223,5.0,14.0,72,0.00,,,0.46,618.000000,,2013-09-14 22:13:00,
2013-09-14 16:24:00,61.0,52.0,-100.00,SW,223,5.0,14.0,72,0.00,,,0.46,618.000000,,2013-09-14 22:24:00,
2013-09-14 16:34:00,61.0,50.0,-100.00,SW,230,5.0,10.0,68,0.00,,,0.46,382.000000,,2013-09-14 22:34:00,
2013-09-14 16:53:00,61.0,50.0,-100.00,SW,230,5.0,10.0,68,0.00,,,0.46,382.000000,,2013-09-14 22:53:00,
2013-09-14 17:03:00,61.0,50.0,-100.00,SW,230,5.0,10.0,68,0.00,,,0.46,382.000000,,2013-09-14 23:03:00,
2013-09-14 17:11:00,61.0,50.0,-100.00,SW,230,5.0,10.0,68,0.00,,,0.46,382.000000,,2013-09-14 23:11:00,
2013-09-14 17:23:00,61.0,50.0,-100.00,SW,230,5.0,10.0,68,0.00,,,0.46,382.000000,,2013-09-14 23:23:00,
2013-09-14 17:53:00,62.0,50.0,-100.00,WSW,245,5.0,10.0,65,0.00,,,0.46,224.000000,,2013-09-14 23:53:00,
2013-09-14 18:02:00,62.0,50.0,-100.00,WSW,245,5.0,10.0,65,0.00,,,0.46,224.000000,,2013-09-15 00:02:00,
2013-09-14 18:12:00,62.0,50.0,-100.00,WSW,245,5.0,10.0,65,0.00,,,0.46,224.000000,,2013-09-15 00:12:00,
2013-09-14 18:22:00,62.0,50.0,-100.00,WSW,245,5.0,10.0,65,0.00,,,0.46,224.000000,,2013-09-15 00:22:00,
2013-09-14 18:31:00,62.0,50.0,-100.00,WSW,245,5.0,10.0,65,0.00,,,0.46,224.000000,,2013-09-15 00:31:00,
2013-09-14 18:53:00,61.0,50.0,-100.00,WSW,255,4.0,7.0,68,0.00,,,-99.99,135.000000,,2013-09-15 00:53:00,
2013-09-14 19:01:00,61.0,50.0,-100.00,WSW,255,4.0,7.0,68,0.00,,,-99.99,135.000000,,2013-09-15 01:01:00,
2013-09-14 19:11:00,61.0,50.0,-100.00,WSW,255,4.0,7.0,68,0.00,,,-99.99,135.000000,,2013-09-15 01:11:00,
2013-09-14 19:22:00,61.0,50.0,-100.00,WSW,255,4.0,7.0,68,0.00,,,-99.99,135.000000,,2013-09-15 01:22:00,
2013-09-14 19:32:00,61.0,50.0,-100.00,WSW,255,4.0,7.0,68,0.00,,,-99.99,135.000000,,2013-09-15 01:32:00,
2013-09-14 19:52:00,59.0,51.0,-100.00,WSW,248,3.0,6.0,74,0.00,,,0.46,14.000000,,2013-09-15 01:52:00,
2013-09-14 20:02:00,59.0,51.0,-100.00,WSW,248,3.0,6.0,74,0.00,,,0.46,14.000000,,2013-09-15 02:02:00,
2013-09-14 20:12:00,59.0,51.0,-100.00,WSW,248,3.0,6.0,74,0.00,,,0.46,14.000000,,2013-09-15 02:12:00,
2013-09-14 20:22:00,59.0,51.0,-100.00,WSW,248,3.0,6.0,74,0.00,,,0.46,14.000000,,2013-09-15 02:22:00,
2013-09-14 20:32:00,59.0,51.0,-100.00,WSW,248,3.0,6.0,74,0.00,,,0.46,14.000000,,2013-09-15 02:32:00,
2013-09-14 20:34:00,58.0,50.0,-100.00,WNW,291,3.0,6.0,75,0.00,,,0.46,0.000000,,2013-09-15 02:34:00,
2013-09-14 20:52:00,58.0,50.0,-100.00,WNW,291,3.0,6.0,75,0.00,,,0.46,0.000000,,2013-09-15 02:52:00,
2013-09-14 21:02:00,58.0,50.0,-100.00,WNW,291,3.0,6.0,75,0.00,,,0.46,0.000000,,2013-09-15 03:02:00,
2013-09-14 21:11:00,58.0,50.0,-100.00,WNW,291,3.0,6.0,75,0.00,,,0.46,0.000000,,2013-09-15 03:11:00,
2013-09-14 21:21:00,58.0,50.0,-100.00,WNW,291,3.0,6.0,75,0.00,,,0.46,0.000000,,2013-09-15 03:21:00,
2013-09-14 21:55:00,59.0,49.0,-100.00,North,352,1.0,6.0,69,0.00,,,0.46,0.000000,,2013-09-15 03:55:00,
2013-09-14 22:02:00,-999.0,-99.9,-100.00,North,352,1.0,6.0,-999,-99.99,,,-99.99,0.000000,,2013-09-15 04:02:00,
2013-09-14 22:13:00,59.0,49.0,-100.00,North,352,1.0,6.0,69,0.00,,,0.46,0.000000,,2013-09-15 04:13:00,
2013-09-14 22:24:00,59.0,49.0,-100.00,North,352,1.0,6.0,69,0.00,,,0.46,0.000000,,2013-09-15 04:24:00,
2013-09-14 22:33:00,59.0,49.0,-100.00,North,352,1.0,6.0,69,0.00,,,0.46,0.000000,,2013-09-15 04:33:00,
2013-09-14 22:34:00,59.0,50.0,-100.00,SSE,164,4.0,6.0,71,0.00,,,0.46,0.000000,,2013-09-15 04:34:00,
2013-09-14 22:54:00,59.0,50.0,-100.00,SSE,164,4.0,6.0,71,0.00,,,0.46,0.000000,,2013-09-15 04:54:00,
2013-09-14 23:03:00,59.0,50.0,-100.00,SSE,164,4.0,6.0,71,0.00,,,0.46,0.000000,,2013-09-15 05:03:00,
2013-09-14 23:13:00,59.0,50.0,-100.00,SSE,164,4.0,6.0,71,0.00,,,0.46,0.000000,,2013-09-15 05:13:00,
2013-09-14 23:22:00,59.0,50.0,-100.00,SSE,164,4.0,6.0,71,0.00,,,0.46,0.000000,,2013-09-15 05:22:00,
2013-09-14 23:52:00,58.0,50.0,-100.00,SSE,162,6.0,9.0,75,0.00,,,0.46,0.000000,,2013-09-15 05:52:00,